Weather History for MMLO - October, 2011

Change the Weather History Date:

Friday, October 14, 2011

  Actual Average Record
Temperature  
Mean Temperature 66 °F -  
Max Temperature 75 °F 79 °F 89 °F (2012)
Min Temperature 57 °F 53 °F 48 °F (2001)
Cooling Degree Days 1    
Growing Degree Days 16 (Base 50)    
Moisture  
Dew Point 48 °F    
Average Humidity 54    
Maximum Humidity 68    
Minimum Humidity 41    
Precipitation  
Precipitation 0.00 in - - ()
Sea Level Pressure  
Sea Level Pressure 30.06 in    
Wind  
Wind Speed 4 mph ()    
Max Wind Speed 12 mph    
Max Gust Speed -    
Visibility 9.5 miles    
Events      
Averages and records for this station are not official NWS values.
T = Trace of Precipitation, MM = Missing Value Source: Averaged Metar Reports

Daily Weather History Graph

Daily Weather History Graph

Search for Another Location

Airport or City:

Trip Planner

Search our weather history database for the weather conditions in past years. The results will help you decide how hot, cold, wet, or windy it might be!

Date:

Astronomy

Oct. 14, 2011 Rise Set
Actual Time 7:40 AM CDT 7:22 PM CDT
Civil Twilight 7:18 AM CDT 7:44 PM CDT
Nautical Twilight 6:52 AM CDT 8:10 PM CDT
Astronomical Twilight 6:27 AM CDT 8:36 PM CDT
Moon 9:04 PM CDT (10/14) 9:46 AM CDT (10/14)
Length of Visible Light 12h 26m
Length of Day
11h 41m
Waning Gibbous, 94% of the Moon is Illuminated
Oct 14
Waning Gibbous
Oct 19
Last Quarter
Oct 26
New
Nov 2
First Quarter
Nov 10
Full

Hourly Weather History & Observations

Time (CDT) Temp. Dew Point Humidity Pressure Visibility Wind Dir Wind Speed Gust Speed Precip Events Conditions
12:45 AM 64.4 °F 46.4 °F 52% 29.86 in 8.0 mi NE 6.9 mph - N/A   Overcast
1:45 AM 60.8 °F 46.4 °F 59% 30.21 in 8.0 mi Calm Calm - N/A   Overcast
2:45 AM 60.8 °F 46.4 °F 59% 30.20 in 8.0 mi Calm Calm - N/A   Mostly Cloudy
3:50 AM 60.8 °F 50.0 °F 68% 29.81 in 8.0 mi Calm Calm - N/A   Mostly Cloudy
4:50 AM 59.0 °F 48.2 °F 67% 30.16 in 8.0 mi Calm Calm - N/A   Mostly Cloudy
5:44 AM 57.2 °F 46.4 °F 67% 30.14 in 8.0 mi Calm Calm - N/A   Mostly Cloudy
6:50 AM 57.2 °F 33.8 °F 41% 29.90 in 8.0 mi Calm Calm - N/A   Scattered Clouds
7:50 AM 57.2 °F 46.4 °F 67% 30.17 in 10.0 mi NE 6.9 mph - N/A   Scattered Clouds
8:41 AM 62.6 °F 51.8 °F 68% 30.21 in 10.0 mi NE 6.9 mph - N/A   Scattered Clouds
9:44 AM 66.2 °F 50.0 °F 56% 29.86 in 10.0 mi Calm Calm - N/A   Scattered Clouds
10:46 AM 71.6 °F 48.2 °F 43% 30.24 in 10.0 mi East 11.5 mph - N/A   Scattered Clouds
11:46 AM 75.2 °F 50.0 °F 41% 30.24 in 10.0 mi ESE 9.2 mph - N/A   Scattered Clouds
12:45 PM 73.4 °F 48.2 °F 41% 29.82 in 10.0 mi ENE 8.1 mph - N/A   Scattered Clouds
2:43 PM 73.4 °F 50.0 °F 44% 30.15 in 12.0 mi ENE 8.1 mph - N/A   Mostly Cloudy
3:48 PM 75.2 °F 50.0 °F 41% 29.74 in 12.0 mi NE 10.4 mph - N/A   Mostly Cloudy
4:40 PM 73.4 °F 50.0 °F 44% 30.13 in 12.0 mi ENE 10.4 mph - N/A   Mostly Cloudy
5:46 PM 73.4 °F 48.2 °F 41% 30.12 in 12.0 mi ENE 6.9 mph - N/A   Mostly Cloudy
6:40 PM 71.6 °F 50.0 °F 46% 29.78 in 12.0 mi East 5.8 mph - N/A   Mostly Cloudy
7:42 PM 68.0 °F 50.0 °F 52% 30.14 in 10.0 mi East 6.9 mph - N/A   Mostly Cloudy
8:40 PM 64.4 °F 50.0 °F 59% 30.15 in 8.0 mi ENE 5.8 mph - N/A   Mostly Cloudy
9:43 PM 60.8 °F 50.0 °F 68% 29.86 in 8.0 mi East 6.9 mph - N/A   Scattered Clouds
10:43 PM 62.6 °F 48.2 °F 59% 30.21 in 8.0 mi East 9.2 mph - N/A   Scattered Clouds
11:42 PM 60.8 °F 48.2 °F 63% 30.21 in 8.0 mi ENE 5.8 mph - N/A   Scattered Clouds